Tracking 27107 objects as of 20-Mar-2023
HD Live streaming from Space Station
objects crossing your sky now

ARIANE 44LP DEB

Track ARIANE 44LP DEB now!


NORAD ID: 26794
Int'l Code: 1991-015L
Perigee: 633.6 km
Apogee: 28,328.5 km
Inclination: 7.6 °
Period: 499.4 minutes
Semi major axis: 20852 km
RCS: 0.5191 m2 (medium)
Launch date: March 2, 1991
Source: France (FR)
Launch site: FRENCH GUIANA (FRGUI)

Note: This is SATELLITE DEBRIS
Your satellite tracking list
Your tracking list is empty




NASA's NSSDC Master Catalog

Two Line Element Set (TLE):
1 26794U 91015L   23079.49542626  .00001325  00000-0  16461-1 0  9993
2 26794   7.6188 257.4907 6640804 135.5554 185.5046  2.88323746 93880
Source of the keplerian elements: AFSPC